RH
14 11 11 12 12 13 13 15 17 20 22 24 25 25 24 22 22 21 22 22 22 25 25 23 19 16 17 15 14 14 14 13 15 19 16 8 3 6 10 11 10 11 13 11 11 15 18 19 18 25 33 34 29 21 30 36 25 21 19 19 21 20 20 19 23 23 25 30 33 35 32 37 43 43 44 42 49 55 60 67 66 65 64 64 70 74 77 82
10 9 10 10 10 11 12 13 15 18 20 22 25 26 27 24 23 22 22 23 24 26 25 23 19 18 19 16 17 17 16 16 20 23 13 6 6 6 6 7 12 14 13 10 9 11 11 13 18 23 24 21 19 17 19 22 19 19 17 18 18 17 20 19 22 26 28 30 32 33 34 36 40 42 40 41 50 53 62 71 68 71 72 71 75 77 79 79
8 8 9 9 10 10 11 12 13 15 18 21 23 26 28 27 25 25 24 24 27 28 26 23 20 21 20 19 22 21 24 24 20 16 7 3 5 6 7 5 9 13 13 10 8 12 14 17 22 21 19 15 14 15 11 13 17 16 15 17 16 16 25 27 26 29 29 29 32 34 35 36 38 39 37 40 46 47 57 68 70 74 75 74 75 74 77 77
7 7 8 9 9 10 10 11 11 13 16 19 21 24 28 29 28 27 26 27 29 30 27 24 22 22 21 22 23 25 30 22 8 5 6 6 3 3 6 5 8 13 13 10 9 16 20 22 23 19 17 13 13 13 8 11 15 11 11 15 18 20 27 31 29 30 30 29 31 33 34 37 38 36 37 38 39 41 49 59 65 71 74 75 74 71 73 74
7 7 7 8 8 9 9 9 10 11 14 18 20 23 27 29 30 29 28 28 29 28 26 23 22 21 22 22 20 28 26 10 3 6 12 14 9 5 3 5 9 14 13 9 10 18 21 21 20 17 15 11 10 10 7 9 10 9 10 13 20 24 28 32 31 31 31 30 31 33 34 38 38 37 38 38 39 41 44 51 60 66 67 69 71 71 71 72
7 8 6 8 7 8 9 9 10 10 12 16 20 25 28 30 30 31 29 28 27 25 23 20 19 20 22 23 23 28 18 4 7 11 15 19 16 11 5 3 9 14 12 8 12 18 19 18 18 16 14 12 10 8 7 8 7 12 15 17 24 26 30 33 32 32 30 30 34 36 37 37 37 40 44 47 50 48 47 53 61 64 64 65 68 70 70 70
9 8 7 8 7 8 8 8 8 9 11 14 21 27 29 31 31 31 28 27 24 21 21 18 17 18 22 28 26 22 14 7 9 10 11 14 17 15 7 4 9 14 11 10 15 19 17 16 16 17 14 11 11 9 8 9 9 16 21 25 30 30 32 33 33 34 32 35 38 36 38 39 38 42 50 57 57 54 54 59 63 64 63 65 68 69 68 69
10 9 9 8 7 8 7 8 8 8 10 12 23 29 30 35 35 32 28 25 22 19 18 16 16 17 25 32 23 13 11 8 7 8 10 10 15 17 8 6 10 12 9 10 16 20 18 16 17 17 13 11 11 10 9 10 11 18 25 29 33 33 35 35 36 38 37 39 37 36 42 45 43 45 55 62 58 57 58 60 63 64 63 63 66 69 71 72
10 9 9 8 7 7 6 7 6 8 9 12 25 30 33 40 39 32 26 22 19 18 16 16 17 19 31 36 20 8 8 9 9 9 11 11 13 15 9 6 9 10 9 13 17 18 16 17 19 15 11 13 12 9 9 11 12 17 25 31 34 37 37 37 38 39 39 38 36 43 48 48 46 47 57 62 57 56 58 60 63 64 64 63 63 67 72 73
9 8 8 7 7 6 6 6 5 8 7 13 26 31 33 39 37 29 23 20 17 17 17 18 19 23 40 39 13 5 10 15 17 14 13 14 15 15 9 5 8 8 11 20 19 15 14 15 18 14 11 12 11 9 9 9 13 24 31 35 37 39 39 37 39 38 38 40 39 45 50 50 46 46 58 62 56 56 58 61 63 64 66 65 63 66 72 72
7 7 6 6 6 4 5 5 5 7 6 14 27 31 32 33 30 24 20 18 17 19 18 21 24 32 50 39 9 6 14 18 21 19 16 15 16 13 7 6 7 6 11 21 20 15 14 16 18 14 11 10 9 10 10 10 20 31 34 37 39 39 39 38 39 38 37 40 40 40 42 47 48 50 60 61 55 55 59 63 63 64 67 68 66 67 71 71
6 6 5 5 5 4 5 4 4 6 5 15 29 32 29 26 23 20 19 18 19 19 19 30 39 49 56 32 10 11 15 19 21 20 19 16 15 11 7 7 6 6 10 16 18 17 16 16 15 13 10 9 9 9 10 15 25 31 31 38 42 38 41 40 37 38 36 36 39 34 28 41 56 59 60 58 55 56 60 63 64 65 67 70 69 68 70 70
5 5 5 4 4 4 4 4 4 5 5 16 31 33 26 22 18 18 20 19 20 21 26 41 53 62 53 21 9 14 16 21 20 20 21 18 17 15 12 11 10 9 9 11 16 17 16 15 13 12 11 8 8 8 11 15 21 29 31 36 41 39 41 39 33 37 37 35 42 37 23 39 61 60 56 56 55 57 61 63 63 65 66 69 70 70 70 70
5 4 4 4 4 3 3 4 4 4 5 18 34 33 26 20 17 20 22 21 22 23 33 52 65 69 50 21 15 17 18 22 19 19 19 17 18 19 18 15 14 11 10 14 16 16 17 16 13 11 11 10 8 9 14 15 18 30 34 33 37 39 39 36 32 37 39 36 41 34 21 38 59 60 56 54 54 56 60 62 62 64 66 68 70 70 71 71
5 5 5 4 4 3 3 3 4 4 5 20 37 35 26 20 19 23 24 27 25 26 45 65 72 65 40 22 20 18 20 22 18 17 15 14 15 18 20 17 15 14 13 15 16 17 17 14 11 9 9 11 9 10 15 17 20 26 32 37 37 35 37 35 31 35 38 36 38 30 24 42 57 58 55 52 54 55 57 60 61 64 65 66 70 69 68 70
6 6 4 4 4 3 3 3 4 4 5 24 39 35 28 23 24 27 28 32 29 35 58 68 67 56 29 17 18 17 22 20 17 16 13 13 12 13 18 16 15 16 15 16 15 16 15 12 12 11 9 10 9 11 15 23 27 22 23 38 39 33 37 36 31 34 36 35 36 32 31 45 55 56 56 52 53 54 57 61 61 63 63 64 67 65 66 68
7 6 5 5 3 3 3 2 4 3 7 27 40 37 33 29 29 31 33 34 34 47 62 62 64 53 25 15 16 15 18 17 17 17 14 14 12 11 15 16 15 14 14 15 14 14 12 11 13 12 10 11 11 11 14 21 29 23 18 30 32 30 36 36 33 34 36 37 37 37 39 50 58 58 57 54 54 55 57 60 61 62 64 64 65 63 64 66
7 6 5 4 3 4 3 2 4 2 10 29 39 40 40 40 38 37 42 44 46 56 60 59 57 37 16 14 14 14 15 16 17 17 16 16 15 13 13 14 14 12 11 12 11 11 10 10 12 11 10 12 11 10 11 14 21 20 16 24 25 25 31 33 34 35 36 39 39 40 46 58 64 61 59 57 56 56 57 60 61 61 63 65 65 62 63 65
8 6 5 5 4 4 2 3 3 2 15 31 37 44 47 51 48 43 54 59 47 40 36 41 41 22 13 15 15 16 15 14 16 16 18 18 16 14 12 12 12 11 10 9 10 10 10 11 12 11 11 11 10 9 10 9 13 14 12 17 20 22 27 30 34 37 37 40 42 43 49 61 66 63 61 59 59 59 61 63 63 63 64 65 66 64 66 65
9 7 6 5 4 4 3 3 2 4 21 30 34 43 43 43 41 34 46 53 39 28 21 24 28 20 17 18 17 16 13 13 14 14 17 17 15 13 12 12 11 10 10 10 10 11 11 11 11 12 10 11 11 11 11 11 11 12 11 11 14 17 24 33 39 39 36 39 51 54 55 64 67 65 63 61 63 63 64 66 66 66 66 66 67 66 69 68
9 8 6 4 5 3 3 3 2 8 23 28 30 34 30 30 31 26 31 34 30 32 27 23 26 23 19 19 19 15 12 13 12 12 15 16 14 12 12 12 10 11 13 12 11 11 12 12 12 11 10 13 14 12 12 13 11 11 10 10 14 17 25 35 39 40 38 40 57 63 60 68 69 67 67 64 63 62 62 65 66 67 68 69 71 70 70 72
10 9 6 4 5 2 4 3 2 13 22 24 27 26 25 30 31 29 30 27 25 29 29 27 27 24 22 22 21 18 14 12 11 12 14 15 13 11 12 12 11 11 13 13 12 12 13 11 10 10 13 15 16 15 13 14 13 10 12 10 12 20 30 38 39 45 43 41 58 64 59 69 71 68 70 66 63 64 65 66 67 69 71 72 71 71 73 74
11 9 6 6 4 2 5 1 6 20 18 19 28 28 27 32 32 30 29 28 27 26 27 28 25 23 23 20 20 20 14 12 12 12 12 13 13 11 12 13 12 12 12 11 11 13 12 10 10 11 13 13 14 16 13 13 12 11 12 9 13 24 29 32 40 51 49 44 56 61 58 67 69 70 72 66 64 66 67 67 68 69 71 72 69 71 73 71
11 9 8 6 3 4 3 3 15 22 13 17 28 28 27 30 33 30 27 30 30 27 25 24 22 22 20 14 16 17 12 12 12 11 12 13 12 12 13 14 13 11 11 12 11 12 10 10 12 12 13 14 13 14 13 12 13 14 14 10 17 28 26 30 43 51 51 52 55 54 57 64 66 71 71 67 68 67 67 68 69 70 70 72 73 73 74 70
12 10 9 6 6 4 1 10 22 14 10 22 28 28 25 24 31 30 27 29 27 23 22 21 21 19 14 13 15 13 10 11 10 10 12 11 10 11 12 13 12 10 12 13 12 11 10 11 13 12 13 14 11 13 13 11 13 15 15 13 19 28 31 39 46 42 43 53 55 49 50 54 60 69 67 67 72 70 70 70 68 71 72 74 75 73 73 72
12 11 9 8 7 2 5 17 19 8 12 24 27 28 21 19 31 31 28 28 19 16 16 16 17 14 11 13 14 11 10 10 9 10 12 10 9 10 11 12 11 12 14 13 12 12 12 14 14 12 12 12 11 12 12 12 14 14 16 18 23 28 36 43 41 34 37 47 53 47 41 45 55 63 62 65 73 72 73 73 67 69 73 73 73 72 71 70
12 11 9 9 7 8 15 16 12 10 12 20 28 25 16 20 30 30 29 25 16 15 14 11 12 9 9 11 10 10 11 11 10 11 12 10 9 9 10 11 10 12 15 13 11 12 13 15 15 12 10 10 10 10 11 12 12 12 16 23 28 31 37 38 32 33 40 47 56 51 40 42 47 51 59 65 71 74 73 73 69 68 70 70 71 71 71 68
12 11 9 10 8 13 21 19 21 20 11 16 24 17 15 26 31 31 32 25 15 14 11 9 9 7 8 8 8 9 10 11 10 10 11 10 9 8 9 12 11 12 15 12 9 11 14 14 13 11 10 10 9 11 14 13 10 13 18 25 30 32 33 32 28 35 44 44 54 57 44 40 40 45 59 66 70 74 72 70 70 69 68 68 69 69 68 68
11 11 10 9 7 12 23 29 31 21 11 16 16 13 23 32 29 28 30 25 17 12 8 9 8 7 9 8 8 9 8 9 10 9 10 10 9 8 9 12 11 12 14 12 9 10 12 13 13 10 8 10 12 14 14 13 12 16 21 23 26 28 28 30 30 37 41 33 41 55 47 38 36 41 58 69 72 70 65 63 64 66 67 67 68 69 68 69
9 10 10 10 12 18 26 28 20 9 10 12 11 20 32 32 27 26 26 23 16 11 9 9 8 8 10 9 9 10 9 9 10 9 9 10 9 8 10 11 10 12 12 11 10 10 13 17 19 15 11 12 13 14 15 15 15 17 21 22 22 25 25 27 31 36 38 30 32 45 46 39 34 34 48 64 65 58 55 58 61 64 66 67 68 67 67 69
8 8 10 13 17 23 27 22 11 10 12 8 14 29 33 30 27 25 26 21 14 12 11 9 10 9 9 10 10 9 10 11 10 9 9 9 9 9 10 10 10 12 13 11 10 11 13 15 15 16 16 14 11 13 14 15 15 14 16 18 21 25 25 26 29 32 35 33 30 36 42 44 37 29 34 49 54 51 51 53 57 61 64 67 67 65 65 67
7 6 8 10 12 18 20 13 9 14 12 7 20 34 34 35 32 25 25 21 15 15 12 9 10 11 11 11 10 10 10 11 10 11 11 9 9 10 9 10 12 12 13 13 11 12 13 12 12 14 17 15 10 11 13 13 13 12 14 20 23 25 26 25 28 31 31 30 28 32 40 47 43 31 29 39 47 51 51 47 48 55 61 65 66 65 67 66
6 5 5 7 10 11 9 6 8 12 8 9 25 33 33 37 33 26 23 19 18 17 12 11 10 12 13 9 10 13 11 10 11 12 13 11 10 10 10 12 13 11 13 15 12 11 12 14 14 11 14 16 11 9 12 12 12 11 14 20 22 23 23 24 28 30 27 26 27 32 40 43 37 31 31 32 36 43 49 48 46 50 58 63 64 63 65 66
5 5 6 8 10 9 8 9 10 9 9 17 28 30 32 36 34 31 28 23 22 18 13 13 11 11 13 10 11 13 10 11 13 11 11 11 11 11 10 12 12 11 13 15 13 13 14 14 14 11 12 14 11 9 11 11 11 12 13 15 17 19 18 19 22 22 22 27 31 34 37 33 27 33 41 39 38 42 46 49 50 52 56 59 61 62 64 64
5 6 8 11 13 14 15 16 15 12 17 24 29 32 36 38 33 31 30 24 21 20 17 15 12 11 12 11 13 14 10 12 15 13 10 10 11 11 10 10 12 12 11 13 15 17 17 14 14 16 15 12 11 13 14 11 11 13 13 12 14 16 20 26 27 25 25 25 31 36 32 29 30 37 45 45 46 49 48 48 51 54 57 60 62 64 64 63
5 8 11 16 20 20 21 23 19 15 22 27 28 33 36 33 27 26 28 22 18 20 19 14 11 11 11 11 13 14 10 11 14 13 10 11 11 11 11 11 11 11 9 13 18 18 16 14 16 19 16 13 13 14 15 14 12 14 13 12 16 17 24 33 32 32 30 21 28 36 28 28 31 31 42 50 49 53 55 51 50 53 58 63 64 64 64 63
12 19 23 22 20 21 25 27 20 17 25 27 28 35 34 25 22 25 27 24 19 19 19 16 13 13 12 11 11 12 11 10 12 11 11 12 11 10 12 11 10 10 8 10 16 17 13 13 17 18 15 15 17 14 14 14 13 13 12 14 19 16 21 32 30 30 28 20 27 33 27 31 31 23 38 52 49 52 59 55 53 57 62 64 64 64 64 63
36 42 36 24 22 27 28 24 19 23 28 28 35 44 37 24 21 24 23 21 19 20 19 18 16 15 13 12 11 12 11 9 10 12 12 11 12 11 11 10 10 11 9 9 11 14 13 12 15 19 17 16 17 13 12 13 12 12 12 14 16 15 22 33 30 25 24 22 26 30 32 38 34 25 30 37 41 50 59 62 60 60 63 64 63 63 64 62
54 46 27 22 27 28 25 22 24 30 30 30 38 41 33 27 25 25 24 22 20 20 19 17 16 16 14 13 12 12 13 12 10 12 13 12 13 13 11 11 11 11 9 9 9 12 15 14 13 17 18 15 15 14 13 14 13 13 13 13 15 19 26 29 24 20 20 25 26 26 30 31 30 33 31 28 38 50 58 66 64 59 60 62 61 61 62 63
57 34 15 23 29 26 26 28 30 33 31 33 40 36 28 26 23 22 24 22 19 19 19 17 16 16 16 16 14 14 18 17 12 11 14 12 12 13 13 12 13 14 12 10 11 16 19 17 15 16 17 15 15 15 14 13 14 14 13 15 17 20 22 20 22 23 21 27 28 25 24 19 24 43 42 33 40 49 55 62 63 59 58 60 61 60 60 62
58 22 13 23 27 32 36 33 33 35 33 34 37 34 29 28 25 22 23 23 20 18 17 17 16 17 18 17 15 16 18 17 14 14 13 11 12 12 12 14 15 13 11 11 12 14 18 19 19 17 15 13 14 18 19 15 13 13 12 13 15 18 21 19 23 28 24 26 28 26 24 15 24 50 52 41 43 46 49 55 57 59 58 59 60 59 59 62
44 11 11 20 28 37 37 33 36 38 34 31 30 28 29 31 28 23 21 20 20 19 18 18 18 18 18 16 17 20 19 16 16 15 12 13 15 12 14 21 19 11 10 12 12 19 28 29 27 22 19 18 17 23 25 19 16 15 13 14 13 16 20 16 20 27 27 28 29 27 26 19 27 51 53 48 51 47 47 53 53 54 56 58 60 57 58 62
40 24 19 20 28 35 33 34 37 34 30 29 25 22 23 24 22 20 17 15 17 19 17 17 17 17 17 16 18 22 19 17 19 17 16 19 18 18 23 24 17 13 13 13 15 24 35 38 33 28 26 22 18 21 24 20 18 15 15 18 15 14 17 17 26 33 28 29 28 26 26 19 29 54 57 56 61 53 49 54 53 52 54 56 59 59 60 64
60 55 40 29 26 27 31 34 31 28 29 28 24 20 19 18 17 16 14 14 18 19 17 17 15 15 17 17 19 21 19 18 19 19 21 22 21 28 34 28 19 12 11 16 19 18 24 35 34 28 27 25 20 20 22 21 19 16 18 22 19 19 20 21 33 35 29 33 31 23 22 19 31 54 56 55 59 53 48 50 51 53 55 54 58 61 64 66
65 59 52 41 31 28 30 30 27 26 30 32 28 23 23 20 17 18 16 16 19 18 17 18 15 14 18 17 19 23 22 19 17 19 22 22 23 30 35 32 23 13 19 34 28 16 26 41 36 25 23 23 23 24 23 21 21 21 24 23 20 21 19 22 33 30 26 38 35 24 21 20 30 42 38 41 53 52 49 50 49 53 55 55 58 61 65 67
56 52 51 43 34 36 39 39 37 34 34 35 30 27 29 26 23 25 22 17 18 18 17 18 16 16 17 17 20 24 24 21 20 23 24 19 19 25 33 38 32 29 44 49 31 26 42 48 42 36 28 22 27 31 30 26 23 22 24 22 20 22 22 26 33 27 29 37 32 31 37 28 25 30 28 34 46 48 50 52 51 54 56 57 60 62 65 67
57 58 60 51 44 43 43 44 45 44 39 36 32 32 36 34 32 31 26 21 21 21 20 19 18 17 17 19 21 22 25 28 26 24 22 22 24 24 29 37 38 45 55 43 29 38 44 35 39 47 39 31 32 35 35 30 22 22 24 21 21 25 24 23 27 31 38 33 23 41 58 39 22 26 28 32 41 47 52 52 51 54 56 56 62 65 65 66
56 59 60 59 56 52 47 48 50 49 43 39 39 39 39 39 39 38 34 29 24 23 24 21 19 22 23 23 20 22 29 31 28 27 26 29 32 24 20 25 29 38 41 27 28 42 37 29 35 37 34 34 33 33 35 30 24 25 24 20 21 25 24 23 29 38 38 27 24 50 66 45 25 25 23 25 34 38 42 48 49 52 54 57 63 65 64 64
61 60 57 57 59 58 56 57 55 48 43 47 47 42 41 42 42 41 40 36 30 31 33 27 27 32 32 29 30 36 39 29 25 34 37 36 35 28 22 22 21 23 24 20 30 40 33 34 40 32 27 31 32 33 32 26 24 26 24 22 21 23 23 22 28 34 33 29 31 45 56 46 31 27 23 26 34 36 38 45 48 49 53 58 62 64 63 62
69 69 67 63 60 61 60 58 54 44 43 51 49 42 43 44 42 42 42 38 36 39 41 39 40 41 37 35 38 40 41 38 34 38 40 36 35 34 30 25 19 18 19 21 29 33 30 37 44 36 28 28 30 31 29 24 24 24 24 25 23 23 25 24 27 33 34 36 37 39 46 44 33 32 32 33 42 46 43 45 47 48 54 58 61 63 62 61
81 79 79 72 62 61 61 57 56 50 45 50 50 45 44 42 43 46 42 37 37 41 45 46 46 44 38 38 40 36 38 46 44 40 38 33 31 32 30 26 21 19 23 26 27 30 35 41 42 34 26 27 31 32 30 27 26 24 26 28 26 26 26 25 29 34 32 35 43 43 38 30 28 38 42 41 48 51 45 46 50 51 54 57 60 62 62 62
85 79 82 76 59 58 64 58 55 52 47 50 52 48 45 41 41 45 43 37 36 38 43 45 45 43 37 37 42 40 38 42 42 38 38 36 33 31 27 26 24 22 28 32 32 37 41 36 32 30 25 28 35 34 29 27 27 27 26 25 25 28 28 27 30 35 34 32 35 32 26 25 36 47 46 41 46 50 50 50 52 54 57 59 59 61 62 60
Wind_Speed
25 25 26 26 26 27 28 28 29 29 28 26 24 22 21 18 17 16 16 17 17 17 17 17 15 13 11 10 9 8 9 9 8 6 9 11 8 9 6 5 8 10 7 5 7 9 6 5 4 6 8 7 2 2 4 3 2 2 2 2 3 2 3 4 5 5 7 10 11 8 6 11 10 7 8 8 11 10 9 9 9 12 12 15 21 26 27 24
25 25 26 26 26 27 28 29 29 29 28 27 25 22 21 19 17 16 16 17 17 17 17 15 13 11 10 9 7 5 7 9 8 10 18 15 6 8 9 6 7 9 7 5 7 7 3 1 1 3 4 2 1 1 2 2 2 1 1 2 3 2 1 1 4 6 7 11 11 6 5 9 9 8 6 4 8 8 9 9 10 14 15 19 24 26 26 25
24 25 26 26 26 27 28 29 29 29 29 27 26 24 21 19 17 17 16 16 16 16 14 12 10 9 8 7 4 3 6 6 5 9 17 17 13 12 8 8 9 8 6 4 4 4 4 2 2 1 1 0 2 0 0 1 1 1 1 2 2 2 3 3 5 7 8 12 12 8 7 9 7 5 4 5 8 6 6 8 8 13 16 18 21 23 26 24
25 25 26 27 26 27 28 29 29 30 29 29 27 25 22 19 18 16 16 15 15 13 10 8 7 6 5 4 3 2 3 3 4 4 7 11 17 17 13 10 9 9 6 4 4 5 5 3 2 2 0 1 2 0 1 2 1 1 1 2 5 5 5 3 3 7 8 10 12 10 10 10 6 4 4 5 5 3 4 5 7 14 20 19 19 21 24 23
25 26 26 27 27 27 28 29 30 30 31 30 29 27 23 19 17 16 15 14 12 9 7 6 5 4 3 2 2 1 1 1 2 4 5 7 12 15 17 14 10 9 6 5 4 5 4 2 3 2 2 2 3 0 2 3 1 2 2 3 4 3 5 5 3 8 9 10 12 10 9 7 5 5 5 3 3 3 1 4 9 16 20 20 20 21 22 22
26 26 27 27 28 28 29 29 30 31 32 31 30 28 24 20 17 15 13 11 9 7 5 4 3 3 3 1 1 1 2 2 2 2 4 3 8 11 16 17 12 10 7 5 4 3 2 2 2 2 2 2 3 3 3 3 1 3 3 3 3 1 6 7 5 7 9 12 11 7 7 6 7 7 6 6 6 4 4 9 13 16 18 21 21 20 19 19
27 27 27 28 29 29 29 30 31 32 33 33 32 28 24 20 16 13 10 8 6 5 4 4 3 4 4 3 3 2 1 4 5 2 2 2 7 10 15 18 14 10 7 6 5 2 2 4 4 2 2 1 1 2 2 3 3 5 5 4 5 6 8 8 7 8 11 13 9 7 8 5 7 6 5 8 7 6 10 14 15 17 19 19 18 17 17 18
28 28 28 28 29 30 30 30 31 33 34 34 32 27 24 21 16 11 7 5 4 4 4 4 4 5 5 2 1 1 1 4 5 3 3 3 8 11 16 18 14 11 8 6 4 3 2 4 3 2 2 1 0 1 0 4 8 7 5 4 6 8 8 9 10 12 13 11 10 11 10 8 8 7 7 8 8 10 13 14 15 17 17 16 15 15 15 15
29 29 29 29 30 31 31 31 32 33 34 35 31 26 25 21 13 7 3 2 3 4 4 4 5 6 5 2 0 1 2 3 5 4 3 2 10 15 17 18 16 12 8 6 5 4 2 2 2 2 2 1 1 1 2 3 5 4 6 7 8 9 8 10 12 13 12 8 10 13 9 7 7 6 7 6 8 12 13 14 14 14 14 13 13 14 14 14
30 30 30 30 30 31 31 31 32 33 34 34 29 25 24 18 9 4 2 1 2 3 3 4 6 8 5 3 2 3 2 2 3 1 1 4 14 19 18 18 17 13 8 7 5 3 2 3 3 2 3 2 1 1 4 3 6 6 11 12 10 10 6 8 12 12 10 6 9 14 11 7 4 2 5 6 8 12 13 13 12 12 12 12 12 12 13 14
31 31 31 31 31 31 31 31 32 32 34 33 26 22 20 14 6 1 3 2 1 1 4 6 8 8 5 3 3 3 1 4 4 2 5 9 15 18 17 17 16 13 10 6 3 3 3 5 5 2 2 2 2 4 6 4 9 13 16 14 10 9 6 7 13 11 7 6 6 11 14 10 7 4 5 7 9 10 12 13 11 10 10 10 11 11 11 12
31 31 31 31 31 31 31 31 31 31 33 32 24 19 16 10 3 2 2 2 3 4 8 10 8 6 4 1 4 3 2 5 2 6 10 11 12 13 14 15 13 11 10 6 3 5 5 6 7 3 1 3 2 3 5 3 8 14 15 13 9 8 7 6 8 5 2 6 5 1 9 9 8 5 6 8 9 10 11 12 10 9 8 8 10 9 9 11
31 31 31 31 31 31 31 31 30 31 32 30 22 16 13 6 2 2 1 2 5 6 8 9 4 2 2 2 5 5 4 3 3 8 11 10 11 14 14 12 11 9 9 8 6 6 6 4 3 2 2 2 2 2 5 4 4 9 9 9 9 5 6 4 2 1 2 3 4 6 3 5 5 5 6 8 10 11 11 10 10 8 7 8 8 8 8 10
31 31 31 31 30 30 30 30 30 30 31 28 20 13 9 4 2 3 1 2 5 7 7 5 2 1 1 2 3 3 4 2 7 10 11 12 14 14 11 10 10 9 9 8 7 5 6 4 1 4 2 2 3 4 7 5 2 7 7 5 7 5 8 7 1 2 3 2 4 5 3 3 3 6 6 9 10 12 11 9 10 8 7 7 7 7 7 9
31 31 31 30 30 30 29 29 29 29 30 26 17 10 7 3 1 2 1 1 4 7 7 4 2 1 1 2 0 3 0 5 7 10 11 14 15 11 9 11 10 9 8 5 4 4 5 4 2 3 1 1 5 6 7 5 2 5 5 4 3 4 7 6 3 3 3 0 4 4 4 3 3 6 7 9 10 11 10 9 10 9 9 8 7 8 7 8
32 31 31 31 30 29 29 29 28 27 28 23 14 8 4 2 1 0 0 1 4 6 5 2 2 1 1 0 1 2 2 4 6 10 11 10 11 10 11 11 8 7 6 4 4 5 3 3 2 2 1 2 5 7 7 6 3 1 2 6 6 5 6 5 4 3 2 2 3 4 4 4 3 7 8 8 10 10 9 9 10 9 9 8 7 7 6 7
32 32 31 30 30 29 28 28 27 27 26 20 12 5 3 2 1 0 1 2 4 5 4 1 2 2 2 1 1 1 2 3 7 11 11 8 9 13 12 7 4 5 5 5 5 4 2 2 1 1 2 2 1 5 6 5 6 3 1 4 5 4 7 5 3 4 1 2 2 4 4 4 4 8 9 8 9 9 8 9 9 9 8 8 7 7 7 7
32 32 31 30 30 28 28 27 26 26 22 17 10 4 3 3 2 1 2 3 3 3 2 0 2 2 2 2 2 1 2 3 8 10 11 9 9 12 10 4 3 5 5 4 3 2 0 2 1 1 2 1 1 4 5 5 7 8 5 5 4 4 7 6 3 4 3 1 1 4 5 5 6 7 8 7 7 9 8 7 7 8 8 8 7 7 7 6
32 32 32 31 30 28 27 26 25 24 18 14 10 4 3 4 3 1 1 3 1 2 1 1 2 1 1 2 2 2 2 5 9 9 9 10 8 9 7 4 3 5 5 4 2 1 1 1 1 2 3 3 4 4 4 5 6 9 7 6 8 7 5 4 2 1 4 5 4 3 5 7 8 6 6 7 5 6 6 6 6 6 7 7 6 6 5 6
31 32 32 31 29 28 27 25 25 21 13 11 10 4 2 3 2 0 1 3 4 4 3 2 3 2 2 1 2 1 4 5 4 5 8 11 10 8 4 3 2 4 3 3 3 2 1 3 3 4 4 5 5 4 5 5 4 6 5 4 6 6 4 4 3 3 1 4 2 0 6 9 7 6 5 5 5 5 6 6 6 6 6 5 6 6 5 5
32 32 32 31 29 28 26 24 24 17 9 9 8 3 0 1 2 3 3 3 5 6 7 6 3 4 5 2 2 1 4 3 1 3 8 10 8 7 1 2 3 4 1 1 3 1 1 3 5 5 3 4 5 6 8 7 6 5 4 4 4 4 4 4 3 2 2 2 2 3 8 8 6 5 3 3 5 6 6 6 6 6 6 4 5 5 5 4
32 31 32 31 29 28 25 25 23 11 6 8 4 2 1 1 4 5 3 4 5 5 6 5 2 6 7 5 7 3 1 3 4 2 6 7 3 3 2 1 5 5 1 2 3 2 2 3 5 3 4 7 6 6 8 7 6 5 3 4 3 4 6 4 2 3 1 2 3 7 8 6 4 3 3 4 5 4 3 3 3 5 6 5 6 5 5 4
32 32 32 31 30 28 24 25 19 6 5 9 1 2 1 3 4 5 5 4 6 2 4 5 4 5 4 3 7 6 3 6 7 4 7 7 2 1 4 3 4 4 3 4 5 4 3 3 3 3 7 8 6 5 7 7 4 4 5 5 5 8 8 5 3 4 4 2 5 9 6 3 3 3 4 5 3 2 2 2 2 3 4 4 5 5 5 6
32 32 32 31 31 26 25 24 11 2 9 10 3 3 3 6 3 5 5 3 4 3 3 5 4 5 3 2 9 10 4 3 5 6 8 7 4 2 4 3 4 5 4 6 6 4 3 3 3 5 6 6 7 7 7 6 3 3 6 5 6 12 8 5 7 6 7 6 7 10 4 2 5 6 7 5 4 4 4 5 4 4 4 3 3 4 5 6
33 33 31 32 30 26 27 17 2 4 14 9 5 4 4 8 3 5 3 2 2 3 2 4 3 5 4 4 9 7 3 2 3 5 8 8 6 4 3 2 2 4 5 5 5 4 1 2 4 5 5 5 7 7 7 6 4 3 6 6 6 12 9 10 12 9 5 3 6 7 3 3 5 8 9 6 6 7 5 7 8 7 6 5 5 6 6 5
34 33 32 31 29 29 22 6 1 13 15 4 6 3 6 10 4 5 2 2 2 2 2 3 2 6 5 4 5 4 5 4 1 3 8 10 8 3 3 2 0 2 5 5 3 1 1 2 2 5 7 7 5 5 5 5 4 3 4 6 8 10 12 14 14 9 4 3 4 3 4 2 4 8 12 9 9 9 6 8 10 8 8 8 7 7 7 7
34 33 32 30 29 27 15 4 11 14 7 1 4 2 9 10 2 5 2 1 2 1 2 1 1 5 5 3 4 5 5 4 3 3 5 10 8 1 2 4 1 2 3 4 2 1 2 3 3 5 7 7 5 4 5 5 4 3 2 8 11 11 13 15 13 6 2 4 5 1 2 2 3 5 8 10 11 11 10 11 11 10 10 10 9 9 9 9
34 33 32 29 27 24 13 11 14 8 3 2 3 5 10 5 3 4 2 1 1 1 1 1 1 3 2 1 3 2 1 3 5 4 1 7 6 1 2 5 3 4 2 2 2 3 4 4 6 7 6 6 3 2 6 4 1 2 2 6 8 6 8 8 7 4 2 3 4 4 2 2 3 1 2 8 11 13 14 15 13 12 12 12 11 11 11 9
35 33 32 30 27 20 11 10 9 4 3 2 4 9 7 1 3 1 1 1 0 1 1 1 2 1 2 3 2 2 1 0 2 2 2 4 3 2 2 3 3 5 2 1 1 2 3 3 3 5 5 5 2 5 4 2 2 4 8 11 10 9 8 5 3 4 3 3 4 7 9 5 3 3 3 5 9 14 15 14 14 13 13 13 11 11 11 9
35 33 33 31 26 15 8 11 12 7 4 5 8 8 1 4 1 1 1 1 0 1 0 0 1 1 4 7 3 1 2 0 1 3 3 2 2 3 1 1 3 4 2 2 1 1 0 1 1 1 2 4 7 7 3 2 7 12 11 12 11 8 6 4 3 3 2 3 2 4 10 7 3 3 6 6 7 11 13 11 12 13 13 13 12 11 12 10
35 33 32 31 25 14 6 7 7 2 3 5 8 3 4 2 0 2 1 0 0 0 0 1 0 2 7 8 4 1 2 1 2 5 5 2 3 2 1 2 2 2 1 1 1 1 1 2 1 0 2 4 8 8 5 4 7 7 7 8 8 5 3 3 2 0 3 4 1 1 7 8 5 4 5 7 5 6 9 11 13 16 15 14 13 12 12 10
35 33 31 29 24 17 12 7 4 2 2 6 6 1 2 0 2 3 1 1 1 1 1 1 1 2 6 5 3 3 3 1 1 4 6 4 5 4 2 3 3 2 1 1 2 1 2 2 0 2 1 2 6 8 5 2 1 3 6 7 5 2 2 2 2 2 4 3 2 1 4 5 7 8 7 8 8 7 8 10 13 16 16 15 14 12 11 10
35 33 29 24 19 19 17 12 11 12 9 6 2 1 1 1 3 2 2 2 0 0 0 1 1 3 5 4 3 3 2 3 2 2 3 2 4 5 1 1 2 2 1 1 2 3 3 1 0 2 1 2 4 6 5 4 4 6 7 4 3 3 3 4 3 1 3 1 3 2 4 3 5 7 8 10 10 9 9 9 11 13 15 15 15 13 11 11
36 31 26 22 19 19 16 13 13 12 8 3 1 1 2 2 2 1 2 2 1 1 1 1 1 3 4 3 2 3 2 2 3 3 3 3 5 5 2 1 1 1 3 2 1 2 3 2 3 3 2 3 5 2 2 5 5 3 2 1 4 4 3 3 3 2 2 2 4 3 3 4 3 0 3 4 2 3 6 8 9 10 11 12 13 12 12 12
34 29 23 18 14 11 9 11 12 8 6 4 1 1 3 3 2 1 1 2 2 2 1 1 2 4 3 1 0 2 2 2 2 3 3 4 5 5 4 4 3 2 3 3 2 1 1 2 1 1 0 3 4 1 2 5 5 1 1 1 2 2 2 1 0 1 1 2 2 2 2 3 3 2 2 3 4 4 6 7 10 10 10 10 10 11 11 11
33 27 16 8 8 9 7 8 14 13 7 3 2 3 4 2 2 2 1 1 2 2 2 1 2 3 3 2 1 1 0 0 2 3 2 1 3 3 3 3 5 6 5 3 3 2 1 1 1 1 1 1 2 3 2 1 3 3 2 3 1 1 3 4 2 2 1 2 2 2 3 3 3 3 2 3 6 5 5 8 11 11 11 12 11 11 11 11
33 24 8 4 12 13 10 7 17 16 5 3 3 3 2 2 2 2 1 2 2 1 1 1 1 2 3 3 3 2 2 1 1 2 3 1 2 4 3 2 4 9 8 4 1 2 3 2 2 0 3 3 1 4 7 4 1 3 3 5 5 1 1 2 1 2 1 4 2 2 4 3 2 2 1 3 6 6 5 8 10 11 12 13 12 12 12 12
27 17 4 6 16 14 8 9 20 15 3 2 3 3 2 2 1 2 2 2 2 1 1 2 1 0 2 4 3 3 3 4 3 2 3 2 2 3 4 3 5 9 8 4 2 2 3 3 2 1 2 4 2 3 6 6 5 2 4 5 3 2 1 1 1 2 2 3 2 2 3 3 3 3 1 3 6 5 5 7 10 12 13 13 12 13 13 12
14 6 1 9 17 8 7 16 17 7 1 3 3 2 2 2 3 3 2 2 1 1 1 2 1 0 1 2 3 3 2 4 5 3 3 3 3 3 3 3 4 5 4 5 4 2 1 3 2 1 0 2 2 3 4 4 6 5 5 4 1 1 1 1 1 1 2 2 1 2 2 3 4 4 3 4 5 5 7 8 10 13 14 12 11 12 13 12
5 2 1 12 13 7 16 13 7 1 2 4 2 1 1 3 3 3 3 2 2 2 1 2 1 1 2 1 1 2 1 2 5 3 2 4 4 4 4 3 3 3 2 3 3 3 2 2 3 2 0 3 4 2 5 5 5 5 6 4 1 2 1 1 2 1 1 2 2 2 3 3 2 3 5 6 4 6 9 9 10 12 13 12 11 11 12 12
2 1 1 10 8 10 9 2 2 1 3 2 1 2 1 3 3 4 2 3 3 3 2 2 2 1 1 2 1 2 2 2 4 2 2 4 4 4 3 2 4 5 5 4 3 3 2 2 3 4 4 5 2 1 2 2 2 4 6 5 5 5 3 2 2 1 1 1 1 1 4 4 1 3 5 5 3 5 9 10 9 10 12 12 11 12 12 11
2 1 0 7 5 5 3 1 2 1 1 2 0 2 2 2 2 3 2 1 3 3 1 2 3 2 2 2 1 2 3 2 3 3 3 4 5 4 1 1 3 5 4 4 2 2 1 2 3 3 2 2 1 3 2 3 1 1 1 2 4 4 4 4 4 3 2 1 1 1 3 3 1 2 4 4 3 4 6 8 9 9 11 12 11 12 11 9
1 3 3 7 6 3 3 1 1 1 1 1 2 2 2 2 2 2 2 1 2 1 1 2 3 3 3 2 1 3 3 2 3 3 2 3 3 3 3 4 4 3 2 2 3 3 2 1 2 1 1 1 1 1 1 0 2 2 1 1 3 2 1 2 1 2 4 3 3 2 4 3 2 2 2 3 4 5 6 8 9 8 8 10 12 11 10 8
1 4 4 8 9 1 5 1 1 2 1 0 1 1 1 2 2 2 3 2 1 1 2 2 2 2 1 0 2 2 2 2 4 2 1 2 2 1 2 4 5 6 4 2 3 5 4 1 2 3 2 2 2 2 2 2 3 2 2 2 2 3 6 4 3 2 2 3 3 3 6 4 1 1 2 2 3 6 7 8 9 8 7 9 10 10 9 9
2 2 3 6 9 3 3 1 0 2 1 1 0 1 2 2 2 1 3 3 2 2 2 2 2 1 0 1 2 1 1 0 1 1 1 1 1 0 0 3 6 6 3 0 2 5 3 2 3 5 5 5 5 5 3 4 4 2 3 5 3 5 7 4 3 2 4 3 3 4 6 4 1 1 3 3 3 6 7 7 8 9 8 8 9 9 9 9
2 1 1 3 5 4 2 2 2 0 1 1 1 1 2 2 2 2 2 2 2 3 3 2 2 1 1 1 2 2 1 1 1 1 2 2 2 0 1 1 4 4 3 5 5 4 3 1 3 5 6 6 5 3 1 2 6 5 6 8 6 5 5 4 3 3 4 4 4 5 3 4 5 4 5 4 5 7 7 7 8 9 8 8 8 8 8 9
1 1 2 2 2 2 2 2 4 3 1 0 0 1 2 2 3 3 1 0 3 5 3 2 1 1 1 1 2 2 1 1 1 1 2 1 1 1 1 1 3 3 5 6 3 2 3 3 3 4 3 2 1 2 0 1 5 6 8 10 8 5 6 6 4 3 5 4 5 5 3 4 8 6 6 7 6 7 7 7 8 7 8 8 7 7 9 9
2 1 1 2 1 1 2 3 5 4 2 1 1 1 2 3 3 3 2 2 3 5 3 1 2 5 5 2 1 2 2 1 0 1 2 0 0 0 1 2 1 1 3 3 0 0 3 3 3 3 2 1 2 1 1 1 2 4 8 10 10 8 9 10 6 4 7 5 6 1 6 8 9 6 8 9 6 6 8 7 6 6 7 9 9 10 11 12
3 1 1 3 1 0 2 4 4 2 4 4 2 2 3 4 4 3 2 3 3 6 5 1 3 8 8 4 2 2 2 1 1 2 2 1 1 1 2 2 1 1 2 2 1 0 1 2 3 3 3 4 2 1 1 2 4 5 5 7 8 8 9 8 4 5 7 7 6 1 4 10 10 7 11 11 4 4 7 5 6 8 9 10 11 13 13 14
2 1 2 3 1 1 2 3 2 1 3 3 2 3 3 3 5 4 2 2 3 5 6 4 8 11 7 3 0 2 2 2 2 1 1 0 1 1 2 2 2 2 2 2 1 1 1 2 2 2 3 3 2 2 3 3 4 5 4 4 4 5 4 3 2 3 5 5 6 3 5 10 8 7 11 11 4 4 7 8 8 9 9 11 12 13 14 14
2 1 2 2 1 3 3 2 2 1 2 3 2 2 2 3 5 5 3 2 2 4 6 7 9 8 4 3 5 4 4 5 6 6 5 4 3 2 1 1 2 2 2 1 0 1 1 2 1 1 3 2 2 3 5 5 5 3 2 5 7 6 4 3 3 4 5 4 4 4 5 8 5 3 6 8 5 6 10 9 8 7 8 11 13 13 14 14
5 1 1 2 1 3 3 2 2 1 1 2 2 2 2 2 4 5 2 1 0 3 4 8 8 4 2 3 5 5 7 9 10 10 8 6 7 7 5 4 4 2 1 2 1 1 2 4 3 2 3 2 2 2 5 5 3 2 4 7 10 8 5 3 2 5 7 5 4 5 6 6 3 1 4 6 5 6 7 6 5 6 8 11 12 13 13 14
Wind_Direction
6 5 5 4 2 358 356 355 354 353 353 352 348 341 336 331 325 320 315 312 312 313 312 308 305 300 295 288 288 291 297 298 294 281 242 247 241 203 185 150 154 159 146 121 160 159 152 168 142 140 160 173 200 175 168 196 194 178 230 120 103 138 153 165 174 150 124 137 149 168 154 130 133 120 120 108 94 99 86 72 73 74 82 104 119 128 134 139
5 4 3 3 1 358 356 354 353 351 351 351 348 341 332 327 322 316 313 310 310 310 308 305 301 295 289 281 281 290 305 304 297 273 246 241 230 206 204 188 162 151 150 131 150 162 144 143 180 147 157 170 130 172 164 161 195 201 204 102 112 164 102 116 156 138 129 143 146 145 132 122 123 128 153 140 112 115 94 86 91 93 101 114 124 131 135 141
4 2 1 1 359 357 356 354 352 349 349 349 346 340 330 322 317 314 311 309 310 309 306 303 300 291 279 269 269 293 317 316 296 268 254 242 229 222 201 192 185 164 164 146 120 118 113 139 198 172 163 87 55 222 179 116 200 189 164 106 121 162 102 97 152 149 146 144 134 119 103 101 109 129 161 148 135 139 119 117 117 117 123 127 132 136 140 144
2 1 359 358 357 357 355 353 351 348 347 346 344 340 330 319 312 311 309 309 311 309 306 303 299 285 264 254 240 280 327 302 260 231 233 228 220 221 209 195 182 167 159 137 102 90 104 129 114 46 96 41 32 237 10 18 220 138 288 103 130 161 115 86 145 130 126 126 119 115 107 99 102 107 118 140 136 129 140 148 145 140 138 137 139 141 144 147
0 359 357 356 356 356 354 352 350 347 346 344 341 338 331 320 309 307 307 311 313 308 305 298 293 275 238 235 232 267 316 228 231 167 165 193 201 208 207 200 181 166 156 129 102 92 107 114 99 58 59 30 13 52 18 355 350 77 7 61 114 166 113 89 96 105 107 106 105 108 103 103 108 83 82 81 50 44 102 145 141 143 143 142 143 144 146 149
358 357 356 354 354 354 353 352 349 347 345 343 340 336 332 323 309 304 305 312 314 306 301 284 275 250 191 100 63 186 210 215 325 171 164 191 195 197 195 193 182 164 153 130 102 91 107 70 81 67 59 21 23 54 27 340 275 103 72 39 38 67 116 115 104 103 108 101 94 95 95 110 113 81 50 49 45 45 90 119 130 137 141 142 143 146 149 154
355 355 355 353 352 352 352 351 348 346 345 342 339 336 333 325 311 302 303 312 312 305 294 266 249 226 179 101 68 79 227 271 301 246 225 245 202 195 182 181 178 160 147 131 106 98 94 60 80 102 74 66 53 59 21 35 68 102 100 57 48 71 102 111 107 101 95 93 92 100 99 88 98 92 51 56 71 90 104 116 126 134 139 141 144 147 152 158
353 353 353 352 350 350 350 350 348 346 345 342 340 337 333 327 314 297 297 310 302 289 270 248 233 211 178 129 71 45 241 263 289 287 299 257 187 184 174 170 171 158 141 132 125 149 127 61 97 157 78 66 36 48 1 71 64 78 101 89 79 81 95 105 104 99 92 96 100 92 82 71 84 90 63 59 90 106 112 120 126 135 140 142 148 151 153 160
350 350 351 351 349 349 349 349 347 346 345 343 341 338 334 331 316 288 280 289 277 272 256 238 216 187 166 136 148 234 231 261 289 292 318 232 173 169 170 168 169 162 138 126 140 154 145 97 156 187 128 144 179 31 333 81 70 65 95 95 99 99 110 113 103 100 100 103 103 94 82 85 92 78 64 71 108 117 120 124 131 139 141 145 150 156 160 165
348 348 349 350 349 348 347 348 347 346 345 343 342 339 337 338 323 274 217 198 252 271 237 200 179 164 156 155 170 196 214 12 350 279 34 152 161 159 168 172 166 161 140 124 132 113 113 161 154 155 138 117 102 37 354 73 106 104 96 89 97 102 106 110 105 105 102 95 104 105 97 83 81 65 79 98 123 127 126 127 138 143 142 149 152 160 168 171
347 347 348 349 348 347 346 347 346 345 345 344 343 340 341 347 343 214 165 146 112 159 144 145 148 146 143 160 184 176 110 25 27 122 112 129 150 154 164 168 163 163 146 127 135 118 111 144 139 120 132 132 114 73 42 86 124 118 106 90 82 88 88 95 107 111 100 113 130 108 96 72 53 71 100 125 139 135 131 134 144 147 146 154 156 162 172 177
345 346 347 347 348 347 346 346 346 345 345 344 343 342 346 355 14 143 157 114 109 124 132 137 135 130 128 186 226 199 9 359 40 142 135 129 139 143 151 158 165 169 146 124 146 152 135 144 150 125 103 164 153 73 71 108 126 121 114 103 93 88 103 106 105 108 99 146 200 127 87 57 42 80 118 137 146 139 136 140 146 152 153 156 162 167 175 181
345 345 346 346 347 347 345 345 345 345 345 344 343 345 349 4 69 125 140 111 123 128 136 142 133 123 145 218 221 229 301 338 128 149 145 140 140 138 144 153 162 161 137 121 127 153 158 156 152 111 130 135 87 79 109 92 101 118 108 111 123 113 133 160 115 151 213 145 264 289 86 57 53 106 140 149 151 148 142 145 151 156 161 164 170 176 182 186
345 345 345 346 347 347 345 344 345 345 345 344 343 347 354 7 98 124 117 113 132 137 138 132 107 126 205 235 207 262 297 129 148 156 147 147 141 135 146 149 148 147 132 121 123 141 156 161 126 108 116 58 93 121 105 75 59 117 109 115 141 156 162 181 198 175 196 128 308 286 129 104 108 124 152 162 160 159 152 150 155 159 168 172 178 185 188 190
345 344 344 346 346 346 345 344 344 344 345 343 342 351 2 8 99 126 134 125 138 137 123 87 56 119 274 260 143 340 343 133 156 163 151 151 141 129 144 140 134 139 132 136 154 162 160 156 135 106 81 83 132 129 105 91 72 117 133 143 164 184 167 183 197 190 225 132 331 311 129 118 138 143 156 169 170 169 160 154 159 166 175 180 185 193 196 197
345 343 344 345 345 345 345 343 344 344 344 343 341 353 7 7 53 170 232 132 139 125 109 71 356 271 264 248 42 344 199 155 156 159 154 153 141 131 136 132 133 143 146 171 179 168 159 121 86 39 71 135 137 124 117 122 132 179 186 159 178 188 167 184 186 171 267 267 343 359 139 141 136 150 155 170 178 176 166 160 164 169 178 186 191 197 200 200
345 343 343 343 344 345 344 343 343 343 344 341 338 345 353 336 275 245 20 96 122 112 112 100 334 298 256 326 330 275 221 173 146 156 163 150 133 137 136 125 135 141 135 151 159 156 128 57 54 5 70 86 136 133 134 147 160 181 230 160 179 185 172 177 165 143 124 283 343 43 120 131 120 145 155 167 179 181 177 168 169 172 179 190 196 202 203 204
345 342 342 342 343 344 344 343 342 342 342 340 336 331 326 306 269 334 40 77 90 111 124 154 307 279 220 248 261 244 265 190 147 154 162 144 130 141 137 110 130 137 125 127 143 159 70 21 9 139 98 70 165 160 160 167 172 176 181 179 179 195 194 185 161 166 158 119 108 107 113 124 133 147 156 160 177 191 184 170 171 174 178 187 197 206 207 210
346 342 341 341 342 343 343 342 340 341 341 340 336 322 316 304 273 269 101 95 100 245 239 177 217 306 257 234 272 300 261 166 148 148 154 149 142 134 116 89 109 132 145 158 137 48 42 112 122 164 179 177 170 174 160 154 171 172 169 179 181 184 193 180 105 119 169 136 119 138 131 140 155 159 163 157 167 190 179 164 170 173 178 185 194 203 206 214
347 342 341 341 341 341 342 341 339 339 341 343 339 321 322 329 308 288 194 191 219 255 282 219 199 278 289 244 297 271 144 141 141 150 158 159 149 127 83 38 87 104 136 167 131 45 332 178 192 199 192 184 170 140 109 114 133 142 147 166 181 178 149 140 112 50 189 145 90 126 136 142 157 159 169 159 158 187 186 178 178 175 178 181 189 191 190 203
347 342 340 340 339 339 340 339 337 337 344 349 346 342 351 0 342 328 318 264 228 229 247 238 207 260 268 252 252 175 129 134 105 140 162 162 156 150 98 2 137 134 116 118 95 78 212 193 207 219 198 152 136 126 115 114 125 135 170 165 162 178 137 122 124 61 288 199 119 147 138 137 152 155 171 173 180 200 201 195 187 177 176 174 185 186 178 180
348 343 340 338 337 338 339 338 336 332 349 358 8 64 161 249 295 269 266 299 268 215 226 241 245 262 266 247 237 236 122 147 128 136 168 155 158 182 158 73 154 155 112 119 121 127 191 213 213 205 140 108 102 132 125 116 135 143 173 179 170 157 127 114 105 66 334 228 152 157 149 137 149 160 189 195 198 212 206 211 206 184 180 178 182 181 177 176
348 343 340 338 336 337 337 336 335 322 345 355 24 131 352 326 314 220 201 287 288 237 196 213 218 229 243 237 212 196 176 164 151 169 179 158 134 177 146 120 136 134 135 165 162 156 173 199 200 142 137 126 103 128 125 112 137 158 166 179 175 165 159 160 150 80 52 60 150 157 147 133 154 180 206 206 205 209 206 219 236 211 204 195 187 180 178 182
347 344 340 337 334 335 335 333 334 332 340 334 237 174 4 345 346 180 191 285 280 280 220 207 215 211 217 166 168 170 161 165 163 162 172 164 129 135 155 127 123 136 164 177 171 182 180 132 109 104 131 138 117 131 147 140 144 195 194 195 169 172 176 142 139 126 76 72 133 145 130 182 194 203 206 199 205 211 203 208 215 212 221 230 205 193 192 194
347 344 339 337 335 333 333 331 353 349 334 320 212 182 1 344 332 184 208 307 258 282 231 193 217 207 196 138 161 169 121 146 201 161 165 163 137 137 153 123 155 169 166 161 167 205 229 125 131 118 126 145 133 151 180 173 155 193 213 221 188 169 146 116 137 148 125 127 160 160 186 208 189 211 214 193 203 210 196 210 218 203 204 219 214 204 203 206
345 343 339 337 334 332 335 338 341 331 327 302 179 184 336 334 316 191 198 341 255 260 145 171 200 174 162 138 156 156 137 160 247 137 156 163 151 136 142 127 284 181 160 156 165 223 68 106 152 147 145 150 145 158 187 192 161 154 191 186 171 157 139 138 153 162 166 162 159 190 247 222 177 213 215 202 209 213 201 214 220 204 198 207 211 207 201 201
343 342 338 335 334 337 338 302 314 322 314 237 187 248 323 327 280 183 210 302 238 230 133 185 236 155 160 165 155 155 162 148 114 135 162 168 163 64 160 171 169 148 157 166 155 142 159 141 147 152 140 148 164 162 183 209 169 123 143 152 152 154 151 156 161 161 138 110 113 158 279 272 226 213 205 200 210 219 218 220 219 210 205 205 208 209 204 203
341 340 337 333 332 334 319 291 307 306 253 253 235 297 324 325 165 171 247 253 198 38 132 158 129 140 130 151 146 137 160 119 139 169 161 160 161 23 193 193 170 137 145 202 163 134 178 180 164 162 143 158 184 124 154 174 88 61 90 114 120 124 131 146 149 118 93 140 168 190 189 248 241 169 159 196 212 225 225 221 216 209 207 206 208 208 207 207
338 338 335 331 327 328 312 285 287 268 258 280 296 319 331 151 160 174 242 234 179 60 92 96 141 152 87 138 153 63 86 74 150 151 90 142 150 25 183 183 136 129 98 295 179 110 180 227 194 170 154 157 89 56 139 157 64 126 111 88 81 74 73 81 109 98 105 207 221 188 185 223 246 180 154 182 213 228 225 219 213 208 206 205 207 207 206 207
335 335 333 329 324 326 316 282 275 267 260 286 320 335 61 139 177 221 185 225 291 69 77 263 201 180 139 152 178 14 132 97 48 109 97 128 92 37 88 134 107 126 71 20 45 58 80 283 252 163 116 125 98 68 17 43 125 138 116 94 88 78 70 61 52 72 146 226 256 179 190 217 269 212 182 184 210 222 217 209 201 202 205 203 205 206 203 203
332 332 331 325 316 307 292 282 284 223 195 300 338 17 134 110 321 214 192 240 260 71 147 188 132 152 155 159 175 175 145 68 107 140 139 138 120 82 148 164 111 106 84 62 87 3 40 131 177 42 76 120 110 83 40 72 133 138 122 121 108 81 90 89 62 87 223 224 3 20 197 204 242 246 201 195 202 209 212 207 199 198 201 200 202 204 201 201
329 329 327 319 306 278 246 243 258 199 224 326 347 87 158 207 228 223 268 322 204 198 186 177 180 156 157 156 157 159 153 122 128 151 146 150 170 167 187 194 165 151 191 183 149 126 114 140 320 7 91 166 126 101 82 79 144 135 137 143 126 104 156 165 160 205 235 228 48 31 191 194 242 257 252 229 213 207 214 217 209 201 196 195 198 199 195 197
328 328 324 316 295 266 252 252 253 254 269 310 341 139 114 202 227 226 250 297 33 164 1 113 115 130 152 163 164 162 151 147 170 175 134 124 179 179 78 51 149 155 169 170 161 153 141 138 288 128 144 222 175 144 145 181 197 166 153 157 147 143 179 187 169 238 255 220 71 114 186 220 254 259 264 248 224 213 215 224 223 208 196 193 193 194 192 194
327 329 325 312 290 272 262 248 240 246 250 244 142 141 145 194 237 237 228 270 315 276 356 57 107 128 151 172 176 177 182 164 159 154 140 143 179 188 178 157 163 84 97 137 188 165 166 181 173 159 151 180 189 184 132 143 160 170 144 167 169 164 198 211 193 215 225 124 88 114 180 223 221 209 291 275 269 239 229 232 233 221 203 193 189 189 189 193
327 330 326 310 294 289 271 234 218 202 178 167 123 170 190 210 242 243 233 271 292 287 355 37 137 147 157 204 280 198 206 197 158 149 150 158 180 189 181 183 195 157 130 168 190 84 226 221 115 6 284 168 173 156 59 118 132 125 354 187 192 177 157 135 40 141 114 106 132 165 228 244 246 283 294 285 293 271 246 234 229 223 205 190 188 188 189 194
329 334 331 312 316 325 308 236 195 174 161 158 162 203 215 242 230 190 197 296 307 315 332 356 142 159 179 185 177 161 126 106 153 171 164 163 195 189 181 186 180 182 180 172 171 151 193 202 59 28 75 71 177 139 84 326 147 138 183 174 144 28 113 121 104 71 57 231 176 184 248 263 282 270 226 239 256 245 232 224 220 217 200 189 191 191 190 194
331 336 328 299 325 319 301 238 178 168 158 155 184 221 231 247 216 197 269 303 293 317 313 229 174 176 179 178 181 160 135 129 146 199 173 168 212 179 190 223 174 187 195 180 205 224 200 159 67 172 116 72 299 131 87 21 1 154 181 153 134 89 61 105 149 116 183 239 195 180 248 270 287 262 180 223 243 231 217 213 209 208 200 195 195 192 191 194
326 327 301 311 329 319 281 187 163 157 132 157 203 250 219 218 230 223 285 306 271 269 254 228 234 230 176 182 179 150 161 173 164 180 167 176 245 168 167 191 177 193 198 181 208 224 201 184 87 0 133 116 248 188 106 50 15 50 137 136 143 195 157 113 180 176 205 249 223 183 249 266 226 226 244 232 235 221 204 201 201 203 203 201 196 190 191 193
319 311 304 345 338 327 162 155 153 143 105 174 211 240 213 253 263 239 246 289 266 204 244 245 237 310 195 183 162 145 172 180 159 162 181 185 215 179 176 208 188 193 185 171 189 160 153 230 180 72 32 155 216 229 177 116 53 65 120 126 337 319 126 140 127 199 226 228 232 212 244 238 212 213 233 238 233 201 188 195 205 207 206 205 198 189 189 192
324 274 69 359 358 118 140 147 155 123 149 174 224 202 226 287 272 256 230 229 252 227 255 264 207 207 201 196 208 156 139 163 156 163 192 180 195 198 204 209 158 127 120 143 178 141 107 239 192 114 82 204 190 207 204 168 126 139 162 162 147 100 96 171 116 54 264 191 192 243 257 245 197 187 216 234 231 192 189 196 205 210 208 206 202 193 190 193
323 286 94 9 30 137 146 165 181 140 155 169 260 196 251 293 279 297 262 196 234 244 258 246 215 239 192 180 225 170 134 141 157 163 189 190 209 213 209 207 155 137 134 140 169 180 161 180 175 151 170 194 188 19 283 244 162 166 183 184 165 137 139 181 175 167 271 240 183 230 272 267 180 173 214 229 227 202 202 201 202 207 206 204 204 202 197 194
278 325 119 12 29 177 225 289 146 9 187 172 234 214 265 299 267 303 326 195 233 237 273 256 221 230 217 186 155 160 145 140 157 170 192 200 215 215 192 128 150 149 148 148 159 178 147 129 146 155 183 203 347 1 307 277 304 98 141 180 159 146 160 194 211 190 159 155 105 101 280 271 129 160 228 244 261 242 224 213 207 206 204 203 204 203 200 192
278 316 290 1 12 212 223 129 155 289 190 155 329 227 222 287 263 288 330 296 252 223 244 248 213 212 228 214 172 182 175 168 176 182 193 202 213 208 175 149 144 159 177 157 141 152 156 120 122 107 14 53 38 42 57 31 186 170 69 122 163 164 135 157 185 158 159 175 159 162 256 258 125 138 239 258 261 253 240 226 217 211 206 202 200 198 193 181
317 295 272 352 7 172 197 220 187 195 199 1 338 234 219 252 248 275 291 275 263 244 256 257 227 216 236 170 158 184 192 189 195 198 185 190 188 146 154 173 177 184 194 197 169 173 184 168 134 141 140 131 157 168 157 199 217 207 129 135 163 119 105 105 99 121 201 199 166 204 252 259 105 97 270 262 251 249 242 231 225 221 212 202 196 191 183 174
308 252 239 335 6 68 168 315 48 171 161 119 128 8 350 260 232 309 300 282 283 281 270 277 262 217 144 85 137 120 28 240 199 192 174 193 210 44 112 205 206 203 201 254 150 162 165 166 163 168 175 185 191 195 201 184 175 164 147 161 168 141 140 139 116 163 224 196 158 215 248 268 1 336 280 260 244 255 246 227 225 228 220 207 197 188 180 178
328 347 279 324 12 51 84 19 14 104 111 110 135 53 19 300 305 343 292 269 330 325 283 270 286 231 169 148 139 114 53 7 33 139 176 189 191 196 342 195 202 202 151 122 136 136 116 148 178 182 195 202 188 183 271 141 149 164 167 163 164 154 145 130 126 195 195 149 185 222 246 295 288 271 275 262 235 245 246 226 222 225 220 212 201 188 182 181
348 336 355 342 358 39 78 62 22 13 35 215 143 41 7 318 313 329 356 73 352 338 299 245 326 319 211 189 165 134 106 65 60 131 169 217 212 239 288 180 171 162 129 125 135 118 123 169 179 169 196 254 112 117 154 163 152 157 157 158 164 156 152 165 190 193 138 142 239 231 165 255 267 260 268 269 249 244 247 235 230 224 211 204 192 180 181 181
9 26 9 335 311 29 41 11 3 13 38 51 91 43 9 8 358 347 352 329 337 356 345 191 70 17 353 321 200 161 146 145 147 165 169 196 24 114 150 157 149 145 145 139 56 122 146 162 167 154 136 91 71 74 205 180 126 135 153 160 164 165 178 195 198 156 156 206 266 202 152 226 256 262 267 270 262 255 257 248 238 224 202 191 182 181 185 184
6 53 356 330 327 19 333 332 332 4 42 34 53 54 27 22 20 352 307 307 343 16 10 331 0 354 342 320 263 178 158 171 191 191 182 165 154 141 163 168 131 68 155 132 76 214 166 124 152 168 125 108 99 15 142 125 111 120 139 154 165 174 190 204 194 162 192 241 283 274 209 248 257 256 265 274 278 267 270 262 239 222 202 189 187 188 189 186
10 31 348 332 345 336 321 341 344 60 48 20 30 48 23 20 17 350 294 291 344 12 13 351 336 332 324 320 38 118 69 5 293 264 318 291 185 168 189 201 158 122 111 105 100 263 224 136 169 180 129 104 77 79 89 77 98 121 123 137 163 168 178 210 220 178 206 259 282 268 261 268 259 236 252 268 283 271 261 247 233 223 201 190 192 194 191 185
351 291 330 321 348 359 343 357 14 86 53 18 25 30 5 27 11 334 274 243 344 28 22 344 327 320 317 51 68 67 20 332 288 282 292 285 280 288 291 271 219 168 112 100 126 348 74 123 144 194 174 144 46 75 93 76 77 101 162 195 187 175 176 199 199 184 195 218 233 235 257 271 267 221 246 261 256 250 251 242 231 221 203 198 198 195 190 184
348 275 332 299 306 19 359 344 2 75 97 22 7 348 328 351 349 326 287 207 179 81 30 341 329 319 316 55 51 8 326 302 280 279 283 276 278 282 273 266 273 277 154 139 112 32 125 141 143 186 188 146 62 90 110 105 130 192 235 215 195 185 184 174 173 206 210 201 206 236 255 273 291 290 266 264 250 249 257 253 242 225 211 207 204 197 189 185